DLH136 EDDF-EDDS

Flight info

Callsign DLH136
Flight time 0h 22m
Altitude 17000
Route ANEKI2L/18 ANEKI Y163 NEKLO Y171 INKAM N850 KRH T128 BADSO BADSO2A
Aircraft A321/M-SDE3FGHIRWY/LB1

Departure

Time 2026-04-15 09:51
Airport Frankfurt Main Airport (EDDF)

Arrival

Time 2026-04-15 10:14
Airport Stuttgart Airport (EDDS)
Time Latitude Longitude Altitude Speed Heading
2026-04-15 09:28 50.04753 8.56881 364 ft 0 kts 294°
2026-04-15 09:40 50.04746 8.56907 358 ft 4 kts 292°
2026-04-15 09:40 50.04735 8.56944 363 ft 4 kts 293°
2026-04-15 09:41 50.04732 8.56980 362 ft 4 kts 237°
2026-04-15 09:41 50.04748 8.57002 365 ft 1 kts 204°
2026-04-15 09:41 50.04770 8.57018 362 ft 4 kts 205°
2026-04-15 09:41 50.04795 8.57035 359 ft 3 kts 205°
2026-04-15 09:42 50.04799 8.57038 358 ft 0 kts 205°
2026-04-15 09:44 50.04794 8.57035 359 ft 2 kts 205°
2026-04-15 09:44 50.04769 8.57016 361 ft 6 kts 205°
2026-04-15 09:45 50.04723 8.56984 365 ft 8 kts 205°
2026-04-15 09:45 50.04653 8.56934 363 ft 14 kts 204°
2026-04-15 09:45 50.04558 8.56892 360 ft 13 kts 191°
2026-04-15 09:45 50.04465 8.56860 359 ft 15 kts 193°
2026-04-15 09:46 50.04337 8.56824 360 ft 21 kts 190°
2026-04-15 09:46 50.04229 8.56707 361 ft 21 kts 247°
2026-04-15 09:46 50.04175 8.56479 359 ft 24 kts 249°
2026-04-15 09:46 50.04114 8.56227 357 ft 26 kts 250°
2026-04-15 09:47 50.04051 8.55962 353 ft 27 kts 249°
2026-04-15 09:47 50.03984 8.55685 351 ft 28 kts 249°
2026-04-15 09:47 50.03917 8.55398 351 ft 28 kts 250°
2026-04-15 09:47 50.03846 8.55107 352 ft 29 kts 250°
2026-04-15 09:48 50.03775 8.54808 354 ft 30 kts 250°
2026-04-15 09:48 50.03700 8.54496 349 ft 29 kts 248°
2026-04-15 09:48 50.03671 8.54370 346 ft 9 kts 250°
2026-04-15 09:48 50.03644 8.54269 350 ft 13 kts 248°
2026-04-15 09:49 50.03605 8.54103 352 ft 18 kts 250°
2026-04-15 09:49 50.03560 8.53911 339 ft 20 kts 249°
2026-04-15 09:49 50.03505 8.53687 336 ft 24 kts 249°
2026-04-15 09:49 50.03444 8.53429 334 ft 26 kts 249°
2026-04-15 09:50 50.03379 8.53150 336 ft 28 kts 250°
2026-04-15 09:50 50.03309 8.52857 333 ft 29 kts 249°
2026-04-15 09:50 50.03233 8.52626 333 ft 21 kts 210°
2026-04-15 09:50 50.03005 8.52603 335 ft 63 kts 179°
2026-04-15 09:51 50.02318 8.52610 334 ft 132 kts 179°
2026-04-15 09:51 50.01211 8.52649 391 ft 178 kts 179°
2026-04-15 09:51 50.00021 8.52708 1133 ft 174 kts 177°
2026-04-15 09:51 49.98804 8.52775 1880 ft 179 kts 176°
2026-04-15 09:52 49.97495 8.52859 2204 ft 199 kts 176°
2026-04-15 09:52 49.96038 8.52956 2442 ft 220 kts 176°
2026-04-15 09:52 49.94471 8.53061 3024 ft 228 kts 175°
2026-04-15 09:52 49.92881 8.53170 3839 ft 229 kts 175°
2026-04-15 09:53 49.91288 8.53277 4647 ft 230 kts 176°
2026-04-15 09:53 49.89679 8.53382 5464 ft 232 kts 176°
2026-04-15 09:53 49.88057 8.53488 6245 ft 234 kts 177°
2026-04-15 09:53 49.86420 8.53597 6992 ft 237 kts 177°
2026-04-15 09:54 49.84766 8.53707 7698 ft 239 kts 177°
2026-04-15 09:54 49.83090 8.53819 8407 ft 242 kts 178°
2026-04-15 09:54 49.81393 8.53930 9103 ft 245 kts 178°
2026-04-15 09:54 49.79693 8.54042 9773 ft 250 kts 178°
2026-04-15 09:55 49.77937 8.54115 10428 ft 253 kts 185°
2026-04-15 09:55 49.76111 8.53893 10698 ft 274 kts 186°
2026-04-15 09:55 49.74130 8.53627 10859 ft 297 kts 186°
2026-04-15 09:55 49.71993 8.53336 10998 ft 319 kts 186°
2026-04-15 09:56 49.69705 8.53025 11125 ft 340 kts 186°
2026-04-15 09:56 49.67273 8.52695 11294 ft 357 kts 186°
2026-04-15 09:56 49.62260 8.52038 12309 ft 368 kts 185°
2026-04-15 09:57 49.59696 8.51703 12890 ft 372 kts 186°
2026-04-15 09:57 49.57100 8.51364 13469 ft 375 kts 186°
2026-04-15 09:57 49.54486 8.51023 14034 ft 379 kts 186°
2026-04-15 09:57 49.51845 8.50678 14534 ft 382 kts 186°
2026-04-15 09:58 49.49182 8.50329 15032 ft 386 kts 185°
2026-04-15 09:58 49.46496 8.49980 15537 ft 390 kts 185°
2026-04-15 09:58 49.43780 8.49628 16043 ft 393 kts 185°
2026-04-15 09:58 49.41043 8.49271 16512 ft 397 kts 185°
2026-04-15 09:59 49.38272 8.48905 16974 ft 401 kts 185°
2026-04-15 09:59 49.35481 8.48536 17222 ft 403 kts 185°
2026-04-15 09:59 49.32651 8.48360 17269 ft 415 kts 178°
2026-04-15 09:59 49.29729 8.48851 17265 ft 428 kts 169°
2026-04-15 10:00 49.26816 8.49930 17257 ft 433 kts 168°
2026-04-15 10:00 49.23838 8.50685 17257 ft 433 kts 173°
2026-04-15 10:00 49.20832 8.51124 17239 ft 433 kts 176°
2026-04-15 10:00 49.17817 8.51385 17246 ft 433 kts 177°
2026-04-15 10:01 49.14809 8.51598 17235 ft 433 kts 176°
2026-04-15 10:01 49.11882 8.52241 16727 ft 421 kts 165°
2026-04-15 10:01 49.09100 8.53691 15663 ft 424 kts 160°
2026-04-15 10:01 49.06373 8.55238 14826 ft 423 kts 159°
2026-04-15 10:02 49.03602 8.56844 14086 ft 418 kts 159°
2026-04-15 10:02 49.00899 8.58418 13324 ft 413 kts 159°
2026-04-15 10:02 48.98267 8.59943 12583 ft 407 kts 159°
2026-04-15 10:02 48.95648 8.61442 11783 ft 397 kts 160°
2026-04-15 10:03 48.93137 8.62861 11585 ft 371 kts 160°
2026-04-15 10:03 48.90792 8.64180 11457 ft 347 kts 160°
2026-04-15 10:03 48.88618 8.65403 11299 ft 318 kts 160°
2026-04-15 10:03 48.86611 8.66531 10813 ft 300 kts 160°
2026-04-15 10:04 48.84674 8.67614 10165 ft 293 kts 160°
2026-04-15 10:04 48.82765 8.68680 9842 ft 288 kts 160°
2026-04-15 10:04 48.80908 8.69721 9706 ft 280 kts 160°
2026-04-15 10:04 48.79121 8.70724 9571 ft 268 kts 160°
2026-04-15 10:05 48.77398 8.71690 9439 ft 258 kts 160°
2026-04-15 10:05 48.75744 8.72618 9266 ft 252 kts 160°
2026-04-15 10:05 48.74130 8.73520 8962 ft 249 kts 159°
2026-04-15 10:05 48.72506 8.74426 8657 ft 248 kts 159°
2026-04-15 10:06 48.70894 8.75325 8340 ft 246 kts 159°
2026-04-15 10:06 48.69293 8.76219 8024 ft 244 kts 159°
2026-04-15 10:06 48.67704 8.77106 7722 ft 242 kts 158°
2026-04-15 10:06 48.66113 8.77996 7272 ft 246 kts 158°
2026-04-15 10:07 48.64489 8.78905 6796 ft 252 kts 158°
2026-04-15 10:07 48.62998 8.80211 6507 ft 244 kts 134°
2026-04-15 10:07 48.62086 8.82277 6340 ft 234 kts 109°
2026-04-15 10:07 48.61857 8.84647 6121 ft 227 kts 85°
2026-04-15 10:08 48.62217 8.86948 5831 ft 224 kts 75°
2026-04-15 10:08 48.62657 8.89188 5515 ft 220 kts 75°
2026-04-15 10:08 48.63084 8.91376 5245 ft 214 kts 75°
2026-04-15 10:08 48.63496 8.93511 4973 ft 207 kts 75°
2026-04-15 10:09 48.63890 8.95552 4691 ft 197 kts 75°
2026-04-15 10:09 48.64264 8.97496 4419 ft 188 kts 75°
2026-04-15 10:09 48.64621 8.99353 4168 ft 180 kts 74°
2026-04-15 10:09 48.64964 9.01137 3924 ft 172 kts 75°
2026-04-15 10:10 48.65283 9.02797 3711 ft 157 kts 74°
2026-04-15 10:10 48.65578 9.04337 3513 ft 149 kts 74°
2026-04-15 10:10 48.65864 9.05828 3313 ft 146 kts 74°
2026-04-15 10:10 48.66146 9.07299 3111 ft 145 kts 74°
2026-04-15 10:11 48.66423 9.08746 2911 ft 144 kts 74°
2026-04-15 10:11 48.66703 9.10212 2716 ft 146 kts 74°
2026-04-15 10:11 48.66981 9.11688 2510 ft 147 kts 74°
2026-04-15 10:11 48.67259 9.13171 2307 ft 147 kts 73°
2026-04-15 10:12 48.67552 9.14649 2079 ft 146 kts 73°
2026-04-15 10:12 48.67842 9.16118 1885 ft 145 kts 74°
2026-04-15 10:12 48.68110 9.17590 1699 ft 144 kts 75°
2026-04-15 10:12 48.68385 9.19049 1516 ft 144 kts 72°
2026-04-15 10:13 48.68574 9.20012 1384 ft 144 kts 74°
2026-04-15 10:13 48.68843 9.21438 1256 ft 131 kts 74°
2026-04-15 10:13 48.69054 9.22553 1226 ft 85 kts 73°
2026-04-15 10:13 48.69178 9.23197 1213 ft 53 kts 74°
2026-04-15 10:14 48.69289 9.23568 1205 ft 31 kts 46°
2026-04-15 10:14 48.69433 9.23743 1206 ft 16 kts 14°
2026-04-15 10:14 48.69515 9.23678 1211 ft 14 kts 291°
2026-04-15 10:14 48.69492 9.23476 1216 ft 26 kts 255°
2026-04-15 10:15 48.69436 9.23194 1222 ft 28 kts 255°
2026-04-15 10:15 48.69386 9.22919 1227 ft 26 kts 253°
2026-04-15 10:15 48.69330 9.22638 1233 ft 31 kts 253°
2026-04-15 10:15 48.69234 9.22113 1255 ft 70 kts 254°
2026-04-15 10:16 48.69116 9.21495 1263 ft 43 kts 253°
2026-04-15 10:16 48.69059 9.21179 1273 ft 26 kts 255°
2026-04-15 10:16 48.69009 9.20929 1273 ft 24 kts 252°
2026-04-15 10:16 48.68964 9.20674 1279 ft 26 kts 267°
2026-04-15 10:17 48.69056 9.20465 1288 ft 22 kts 290°
2026-04-15 10:17 48.69010 9.20165 1299 ft 52 kts 253°
2026-04-15 10:17 48.68915 9.19883 1304 ft 24 kts 246°
2026-04-15 10:17 48.68861 9.19657 1309 ft 19 kts 255°
2026-04-15 10:18 48.68831 9.19490 1312 ft 12 kts 262°
2026-04-15 10:18 48.68875 9.19438 1315 ft 7 kts 341°
2026-04-15 10:18 48.68886 9.19433 1315 ft 0 kts 343°
2026-04-15 10:18 48.68890 9.19431 1315 ft 0 kts 343°
2026-04-15 10:19 48.68893 9.19430 1315 ft 0 kts 343°